HUANJING 1B (HJ-1B)

Last updated on Sun Apr 12 2026 00:02:34 GMT+0000 (Coordinated Universal Time)

1 33321U 08041B 26101.55174222 .00001456 00000+0 18239-3 0 9994 2 33321 97.6512 93.3556 0037717 43.8825 316.5375 14.83199007948531
UTC large
Height (km)
Speed (km/s)
/
Latitude / Longitude
Inclination (degrees)
Orbital Period (minutes)
Azimuth
Elevation
Range (km)
Doppler Factor

Next 0 passes for location: London (51.5072 / 0.1276)

Sorry there are no passes over London.
HUANJING 1B (HJ-1B)